Hourly Data Report for July 06, 2021

VINELAND STATION RCS
ONTARIO
Current Station Operator: ECCC - MSC

43°11'00.000" N
79°24'00.000" W
79.20 m
6139148
71171
XVN

Download Data

Hourly Data (July 2021)
Hourly Data Report for July 6, 2021
TIME
LST
Temp Definition
°C
Dew Point Definition
°C
Rel Hum Definition
%
Precip. Amount Definition
mm

Wind Dir Definition
10's deg

Wind Spd Definition
km/h
Visibility Definition
km
Stn Press Definition
kPa
Hmdx Definition


Wind Chill Definition


Weather Definition


00:00 24.9 21.2 80 LegendMM 22 16   100.15 33   LegendNANA
01:00 25.5 20.6 74 LegendMM 22 19   100.12 34   LegendNANA
02:00 25.6 20.4 73 LegendMM 22 19   100.11 34   LegendNANA
03:00 24.9 20.6 77 LegendMM 23 16   100.13 33   LegendNANA
04:00 24.8 20.8 78 LegendMM 23 19   100.14 33   LegendNANA
05:00 24.8 21.0 79 LegendMM 22 21   100.22 33   LegendNANA
06:00 25.7 21.1 76 LegendMM 24 15   100.26 34   LegendNANA
07:00 26.8 21.5 73 LegendMM 25 18   100.28 36   LegendNANA
08:00 27.3 21.4 70 LegendMM 28 15   100.31 36   LegendNANA
09:00 26.8 21.1 71 LegendMM 27 14   100.32 35   LegendNANA
10:00 29.2 21.9 65 LegendMM 26 19   100.29 38   LegendNANA
11:00 28.6 21.8 67 LegendMM 31 17   100.34 38   LegendNANA
12:00 28.7 21.4 64 LegendMM 31 14   100.31 37   LegendNANA
13:00 29.8 21.1 59 LegendMM 31 13   100.30 38   LegendNANA
14:00 30.0 20.3 56 LegendMM 30 11   100.29 38   LegendNANA
15:00 31.4 20.5 52 LegendMM 31 12   100.27 39   LegendNANA
16:00 30.9 19.3 50 LegendMM 30 15   100.27 38   LegendNANA
17:00 29.6 18.6 52 LegendMM 30 13   100.27 36   LegendNANA
18:00 29.0 17.9 51 LegendMM 29 12   100.27 35   LegendNANA
19:00 27.5 17.1 53 LegendMM 30 11   100.33 33   LegendNANA
20:00 25.5 17.6 62 LegendMM 27 7   100.35 31   LegendNANA
21:00 24.5 17.3 64 LegendMM 25 5   100.38 30   LegendNANA
22:00 23.4 17.8 71 LegendMM 25 6   100.40 29   LegendNANA
23:00 22.7 17.4 72 LegendMM 18 5   100.39 28   LegendNANA

Notes on Data Quality.

Legend

  • E = Estimated
  • M = Missing
  • NA = Not Available*
  • [empty] = Indicates an unobserved value
Date modified: